Regional Weather Roundup
Issued by NWS State College, PA

Home | Current Version | Previous Version | Text Only | Print | Product List | Glossary On
Versions: 1 2 3 4 5 6 7 8 9 10 11 12 13 14 15 16 17 18 19 20 21 22 23 24 25 26 27 28 29 30 31 32 33 34 35 36 37 38 39 40 41 42 43 44 45 46 47 48 49 50
000
ASUS41 KCTP 191010
RWRCTP

REGIONAL WEATHER ROUNDUP
NATIONAL WEATHER SERVICE STATE COLLEGE PA
500 AM EST FRI JAN 19 2018

Note: "fair" indicates few or no clouds below 12,000 feet with no
significant weather and/or obstructions to visibility.

* = STATION THAT DOES NOT REPORT PRECIPITATION /E.G. RAIN...SNOW...ETC/
    THUNDER OR FOG.

PAZ002>004-007>009-013>016-020>023-029>032-191100-
WESTERN PENNSYLVANIA

CITY           SKY/WX    TMP DP  RH WIND       PRES   REMARKS
ERIE           FAIR      25  12  58 S14       30.01R WCI  13
MEADVILLE      FAIR      19  10  68 S12       30.00S WCI   7
FRANKLIN*      FAIR      18  10  71 SW13      30.01S WCI   5
NEW CASTLE     FAIR      19  11  70 SW6       30.08R WCI  11
BEAVER COUNTY  NOT AVBL
BUTLER*        FAIR      19  10  68 SW9       30.08S WCI   8
PITTSBURGH INT FAIR      23  10  57 SW10      30.09S WCI  12
PITTSBURGH     FAIR      22   8  55 SW14      30.09S WCI   9
INDIANA*       PTCLDY    21  10  63 W10       30.11R WCI  10
LATROBE        FAIR      23  10  58 S15       30.12S WCI  10
WASHINGTON CO* FAIR      23  11  60 SW8G17    30.14S WCI  14
$$

PAZ004>006-010>012-017>019-024>028-033>037-041-042-045-046-049>053-191100-
CENTRAL PENNSYLVANIA

CITY           SKY/WX    TMP DP  RH WIND       PRES   REMARKS
BRADFORD       FAIR      17  10  74 SW9       29.94R WCI   6
DUBOIS         FAIR      18   8  65 SW15      29.99S WCI   4
CLEARFIELD     FAIR      22  10  60 SW14G24   30.02R WCI   9
JOHNSTOWN      FAIR      22   8  55 W15       30.01R WCI   9
ALTOONA        FAIR      27  11  51 W20       30.04R WCI  13
STATE COLLEGE  FAIR      25  11  56 SW13G20   30.04R WCI  13
WILLIAMSPORT   FAIR      14   9  80 CALM      30.05R
SELINSGROVE    FAIR       6   2  83 CALM      30.07R FOG
FT INDIANTOWN  FAIR      12  12  98 CALM      30.05S
CAPITAL CITY   FAIR      19  11  70 CALM      30.07R
HARRISBURG     FAIR      16  12  84 E3        30.06S
YORK           FAIR      11   9  92 CALM      30.06S
$$

PAZ038>040-043-044-047-048-054-055-060>062-067>071-191100-
EASTERN PENNSYLVANIA

CITY           SKY/WX    TMP DP  RH WIND       PRES   REMARKS
SCRANTON       FAIR      13   9  84 SW3       30.00S
MOUNT POCONO   FAIR      18  10  71 W14       29.92R WCI   4
ALLENTOWN      FAIR       9   3  77 CALM      30.05S
QUAKERTOWN*    FAIR       9   7  92 CALM      30.05S
READING        FAIR      14  11  87 CALM      30.05S
LANCASTER      FAIR      17  13  84 CALM      30.06S
COATESVILLE    FAIR      23  12  63 SW3       30.06S
POTTSTOWN      FAIR      13   9  84 NE3       30.08R
BLUE BELL      FAIR      18  14  86 CALM      30.09R
DOYLESTOWN     FAIR      19  11  70 CALM      30.05S
WILLOW GROVE   NOT AVBL
NORTH PHILA    FAIR      21  14  74 CALM      30.10R
PHILADELPHIA   FAIR      26  17  68 SW7       30.09S
$$




USA.gov is the U.S. government's official web portal to all federal, state and local government web resources and services.